Location: D�derode
(51.8092°N, 10.1065°E)
Time: 21:10:03
(UTC+00:00)

USA 267 - Pass Details

Date: 01 December 2020
Orbit: 1100 x 1107 km, 123.0° (Epoch: 18 January)

Event Time Altitude Azimuth Distance (km) Brightness Sun altitude
Exits shadow 15:46:42 - 81° (E) 3,539 5.3 -5.3°
Reaches altitude 10° 15:48:13 10° 79° (ENE) 2,964 4.9 -5.5°
Maximum altitude 15:54:35 57° 3° (N) 1,281 3.5 -6.4°
Drops below altitude 10° 16:00:58 10° 287° (WNW) 2,970 6.3 -7.3°
Sets 16:03:29 0° 283° (WNW) 3,929 7.1 -7.6°
